Weather Data

Pearl Creek Farm: 8878 N Farm Road 75, Walnut Grove MO 65770

<== Previous Day (Tuesday 07 Jan 2014) | Next Day (Thursday 09 Jan 2014) ==>

Summary Precipitation Data For Wednesday 08 January 2014

ElementValueUnits
Precipitation0"
New Snow Depth0"
New Snow Water Equivalent0"
Total Snow Depth3"
Total Snow Water Equivalent*0"
Notes(none)
SourcePearl Creek Farm

* Total Snow Water Equivalent is not measured every day.

Summary Temperature Data For Wednesday 08 January 2014

ElementValueUnits
High Temperature42 oF
Low Temperature25 oF
Average Temperature33 oF
High Humidity88 %
Low Humidity59 %
Average Humidity73 %
SourcePearl Creek Farm

Detail Temperature Data For Wednesday 08 January 2014

Date / TimeTemp (F)RH (%)Dew Pt (F)Report Date / TimeSource
2014-01-08 00:00:00 25 76 18.5 2014-02-09 14:43:36 Pearl Creek Farm
2014-01-08 00:30:00 26 75 19.2 2014-02-09 14:43:36 Pearl Creek Farm
2014-01-08 01:00:00 27 73 19.5 2014-02-09 14:43:36 Pearl Creek Farm
2014-01-08 01:30:00 27 73 19.5 2014-02-09 14:43:36 Pearl Creek Farm
2014-01-08 02:00:00 27 71 18.9 2014-02-09 14:43:36 Pearl Creek Farm
2014-01-08 02:30:00 26 72 18.2 2014-02-09 14:43:36 Pearl Creek Farm
2014-01-08 03:00:00 26 72 18.1 2014-02-09 14:43:36 Pearl Creek Farm
2014-01-08 03:30:00 26 73 18.6 2014-02-09 14:43:36 Pearl Creek Farm
2014-01-08 04:00:00 26 76 19.3 2014-02-09 14:43:36 Pearl Creek Farm
2014-01-08 04:30:00 26 77 19.8 2014-02-09 14:43:36 Pearl Creek Farm
2014-01-08 05:00:00 26 74 18.9 2014-02-09 14:43:36 Pearl Creek Farm
2014-01-08 05:30:00 27 74 19.8 2014-02-09 14:43:36 Pearl Creek Farm
2014-01-08 06:00:00 27 74 19.7 2014-02-09 14:43:36 Pearl Creek Farm
2014-01-08 06:30:00 27 74 19.8 2014-02-09 14:43:36 Pearl Creek Farm
2014-01-08 07:00:00 27 74 19.8 2014-02-09 14:43:36 Pearl Creek Farm
2014-01-08 07:30:00 27 75 20.2 2014-02-09 14:43:36 Pearl Creek Farm
2014-01-08 08:00:00 28 74 20.8 2014-02-09 14:43:36 Pearl Creek Farm
2014-01-08 08:30:00 29 74 21.6 2014-02-09 14:43:36 Pearl Creek Farm
2014-01-08 09:00:00 31 72 23.1 2014-02-09 14:43:36 Pearl Creek Farm
2014-01-08 09:30:00 32 70 23.4 2014-02-09 14:43:36 Pearl Creek Farm
2014-01-08 10:00:00 34 68 24.6 2014-02-09 14:43:36 Pearl Creek Farm
2014-01-08 10:30:00 36 64 25.0 2014-02-09 14:43:36 Pearl Creek Farm
2014-01-08 11:00:00 38 63 26.6 2014-02-09 14:43:36 Pearl Creek Farm
2014-01-08 11:30:00 40 62 27.9 2014-02-09 14:43:36 Pearl Creek Farm
2014-01-08 12:00:00 40 61 27.5 2014-02-09 14:43:36 Pearl Creek Farm
2014-01-08 12:30:00 41 61 28.6 2014-02-09 14:43:36 Pearl Creek Farm
2014-01-08 13:00:00 42 59 28.7 2014-02-09 14:43:36 Pearl Creek Farm
2014-01-08 13:30:00 41 61 28.6 2014-02-09 14:43:36 Pearl Creek Farm
2014-01-08 14:00:00 42 61 29.6 2014-02-09 14:43:36 Pearl Creek Farm
2014-01-08 14:30:00 41 60 28.0 2014-02-09 14:43:36 Pearl Creek Farm
2014-01-08 15:00:00 41 60 28.2 2014-02-09 14:43:36 Pearl Creek Farm
2014-01-08 15:30:00 40 63 28.3 2014-02-09 14:43:36 Pearl Creek Farm
2014-01-08 16:00:00 39 66 28.6 2014-02-09 14:43:36 Pearl Creek Farm
2014-01-08 16:30:00 38 70 28.9 2014-02-09 14:43:36 Pearl Creek Farm
2014-01-08 17:00:00 37 70 28.0 2014-02-09 14:43:36 Pearl Creek Farm
2014-01-08 17:30:00 37 70 28.0 2014-02-09 14:43:36 Pearl Creek Farm
2014-01-08 18:00:00 35 74 27.4 2014-02-09 14:43:36 Pearl Creek Farm
2014-01-08 18:30:00 35 79 29.0 2014-02-09 14:43:36 Pearl Creek Farm
2014-01-08 19:00:00 34 82 29.1 2014-02-09 14:43:36 Pearl Creek Farm
2014-01-08 19:30:00 34 83 29.4 2014-02-09 14:43:36 Pearl Creek Farm
2014-01-08 20:00:00 33 84 28.7 2014-02-09 14:43:36 Pearl Creek Farm
2014-01-08 20:30:00 33 86 29.1 2014-02-09 14:43:36 Pearl Creek Farm
2014-01-08 21:00:00 33 87 29.6 2014-02-09 14:43:36 Pearl Creek Farm
2014-01-08 21:30:00 33 88 29.7 2014-02-09 14:43:36 Pearl Creek Farm
2014-01-08 22:00:00 33 88 29.7 2014-02-09 14:43:36 Pearl Creek Farm
2014-01-08 22:30:00 33 88 29.7 2014-02-09 14:43:36 Pearl Creek Farm
2014-01-08 23:00:00 33 88 29.7 2014-02-09 14:43:36 Pearl Creek Farm
2014-01-08 23:30:00 33 87 29.6 2014-02-09 14:43:36 Pearl Creek Farm

A total of 48 rows are displayed.